Time,TemperatureF,DewpointF,PressureIn,WindDirection,WindDirectionDegrees,WindSpeedMPH,WindSpeedGustMPH,Humidity,HourlyPrecipIn,Conditions,Clouds,dailyrainin,SoftwareType,DateUTC
2013-05-13 00:01:00,56.3,47.0,29.89,NE,40,0.0,0.0,71,0.00,,---,0.00,VWS V14.01,2013-05-13 07:01:00,
2013-05-13 00:06:00,56.1,46.9,29.86,NE,40,0.0,0.0,71,0.00,,---,0.00,VWS V14.01,2013-05-13 07:06:00,
2013-05-13 00:12:00,56.1,46.9,29.86,NE,40,0.0,0.0,71,0.00,,---,0.00,VWS V14.01,2013-05-13 07:12:00,
2013-05-13 00:17:00,56.1,46.9,29.86,NE,40,0.0,0.0,71,0.00,,---,0.00,VWS V14.01,2013-05-13 07:17:00,
2013-05-13 00:22:00,55.9,46.7,29.86,NE,40,0.0,0.0,71,0.00,,---,0.00,VWS V14.01,2013-05-13 07:22:00,
2013-05-13 00:27:00,55.8,46.5,29.86,NE,40,0.0,0.0,71,0.00,,---,0.00,VWS V14.01,2013-05-13 07:27:00,
2013-05-13 00:32:00,55.6,46.7,29.86,NE,40,0.0,0.0,72,0.00,,---,0.00,VWS V14.01,2013-05-13 07:32:00,
2013-05-13 00:37:00,55.4,46.5,29.86,NE,40,0.0,0.0,72,0.00,,---,0.00,VWS V14.01,2013-05-13 07:37:00,
2013-05-13 00:42:00,55.2,46.4,29.86,NE,40,0.0,0.0,72,0.00,,---,0.00,VWS V14.01,2013-05-13 07:42:00,
2013-05-13 00:47:00,54.9,46.4,29.86,NE,40,0.0,0.0,73,0.00,,---,0.00,VWS V14.01,2013-05-13 07:47:00,
2013-05-13 00:52:00,54.7,46.2,29.86,NE,40,0.0,0.0,73,0.00,,---,0.00,VWS V14.01,2013-05-13 07:52:00,
2013-05-13 00:57:00,54.5,46.0,29.86,NE,40,0.0,0.0,73,0.00,,---,0.00,VWS V14.01,2013-05-13 07:57:00,
2013-05-13 01:02:00,54.1,45.7,29.86,NE,40,0.0,0.0,73,0.00,,---,0.00,VWS V14.01,2013-05-13 08:02:00,
2013-05-13 01:07:00,54.0,45.9,29.86,NE,40,0.0,0.0,74,0.00,,---,0.00,VWS V14.01,2013-05-13 08:07:00,
2013-05-13 01:13:00,53.8,45.7,29.86,NE,40,0.0,0.0,74,0.00,,---,0.00,VWS V14.01,2013-05-13 08:13:00,
2013-05-13 01:18:00,53.8,45.7,29.86,NE,40,0.0,0.0,74,0.00,,---,0.00,VWS V14.01,2013-05-13 08:18:00,
2013-05-13 01:23:00,53.6,45.9,29.86,NE,40,0.0,0.0,75,0.00,,---,0.00,VWS V14.01,2013-05-13 08:23:00,
2013-05-13 01:28:00,53.6,45.9,29.86,NE,40,0.0,0.0,75,0.00,,---,0.00,VWS V14.01,2013-05-13 08:28:00,
2013-05-13 01:33:00,53.4,46.1,29.86,NE,40,0.0,0.0,76,0.00,,---,0.00,VWS V14.01,2013-05-13 08:33:00,
2013-05-13 01:38:00,53.4,46.1,29.86,NE,40,0.0,0.0,76,0.00,,---,0.00,VWS V14.01,2013-05-13 08:38:00,
2013-05-13 01:43:00,53.2,45.9,29.86,NE,40,0.0,0.0,76,0.00,,---,0.00,VWS V14.01,2013-05-13 08:43:00,
2013-05-13 01:48:00,53.2,46.2,29.86,NE,40,0.0,0.0,77,0.00,,---,0.00,VWS V14.01,2013-05-13 08:48:00,
2013-05-13 01:54:00,53.2,46.2,29.86,NE,40,0.0,0.0,77,0.00,,---,0.00,VWS V14.01,2013-05-13 08:54:00,
2013-05-13 01:59:00,53.4,46.7,29.86,NE,40,0.0,0.0,78,0.00,,---,0.00,VWS V14.01,2013-05-13 08:59:00,
2013-05-13 02:04:00,53.4,46.7,29.86,NE,40,0.0,2.7,78,0.00,,---,0.00,VWS V14.01,2013-05-13 09:04:00,
2013-05-13 02:09:00,53.8,47.1,29.86,NE,40,0.0,2.7,78,0.00,,---,0.00,VWS V14.01,2013-05-13 09:09:00,
2013-05-13 02:14:00,54.0,47.3,29.86,NE,40,0.0,0.0,78,0.00,,---,0.00,VWS V14.01,2013-05-13 09:14:00,
2013-05-13 02:19:00,54.0,47.3,29.86,NE,40,0.0,0.0,78,0.00,,---,0.00,VWS V14.01,2013-05-13 09:19:00,
2013-05-13 02:24:00,54.1,47.4,29.86,NE,40,0.0,0.0,78,0.00,,---,0.00,VWS V14.01,2013-05-13 09:24:00,
2013-05-13 02:29:00,54.1,47.4,29.86,NE,40,0.0,0.0,78,0.00,,---,0.00,VWS V14.01,2013-05-13 09:29:00,
2013-05-13 02:34:00,54.1,47.4,29.86,NE,40,0.0,0.0,78,0.00,,---,0.00,VWS V14.01,2013-05-13 09:34:00,
2013-05-13 02:39:00,54.3,47.6,29.86,NE,40,0.0,0.0,78,0.00,,---,0.00,VWS V14.01,2013-05-13 09:39:00,
2013-05-13 02:44:00,54.3,47.6,29.86,NE,41,0.0,2.2,78,0.00,,---,0.00,VWS V14.01,2013-05-13 09:44:00,
2013-05-13 02:49:00,54.3,48.0,29.86,NE,41,0.0,2.2,79,0.00,,---,0.00,VWS V14.01,2013-05-13 09:49:00,
2013-05-13 02:54:00,54.3,48.0,29.86,NE,41,0.0,0.0,79,0.00,,---,0.00,VWS V14.01,2013-05-13 09:54:00,
2013-05-13 03:00:00,54.3,48.0,29.86,NE,46,0.0,3.1,79,0.00,,---,0.00,VWS V14.01,2013-05-13 10:00:00,
2013-05-13 03:05:00,54.5,48.1,29.86,NE,46,0.0,0.0,79,0.00,,---,0.00,VWS V14.01,2013-05-13 10:05:00,
2013-05-13 03:10:00,54.5,48.1,29.86,NE,46,0.0,0.0,79,0.00,,---,0.00,VWS V14.01,2013-05-13 10:10:00,
2013-05-13 03:16:00,54.5,48.1,29.86,NE,46,0.0,0.0,79,0.00,,---,0.00,VWS V14.01,2013-05-13 10:16:00,
2013-05-13 03:21:00,54.3,48.0,29.86,NE,46,0.0,0.0,79,0.00,,---,0.00,VWS V14.01,2013-05-13 10:21:00,
2013-05-13 03:26:00,54.3,48.0,29.86,NE,46,0.0,0.0,79,0.00,,---,0.00,VWS V14.01,2013-05-13 10:26:00,
2013-05-13 03:31:00,54.1,47.8,29.86,SE,144,4.0,5.4,79,0.00,,---,0.00,VWS V14.01,2013-05-13 10:31:00,
2013-05-13 03:37:00,54.1,47.8,29.86,ESE,123,0.0,5.4,79,0.00,,---,0.00,VWS V14.01,2013-05-13 10:37:00,
2013-05-13 03:42:00,54.1,47.8,29.86,ESE,123,0.0,0.0,79,0.00,,---,0.00,VWS V14.01,2013-05-13 10:42:00,
2013-05-13 03:47:00,54.1,48.1,29.86,ESE,123,0.0,0.0,80,0.00,,---,0.00,VWS V14.01,2013-05-13 10:47:00,
2013-05-13 03:52:00,54.0,47.9,29.86,ESE,123,0.0,0.0,80,0.00,,---,0.00,VWS V14.01,2013-05-13 10:52:00,
2013-05-13 03:57:00,53.8,47.8,29.86,ESE,123,0.0,0.0,80,0.00,,---,0.00,VWS V14.01,2013-05-13 10:57:00,
2013-05-13 04:02:00,53.8,47.8,29.86,ESE,123,0.0,0.0,80,0.00,,---,0.00,VWS V14.01,2013-05-13 11:02:00,
2013-05-13 04:07:00,53.6,47.6,29.86,ESE,123,0.0,0.0,80,0.00,,---,0.00,VWS V14.01,2013-05-13 11:07:00,
2013-05-13 04:13:00,53.4,47.4,29.86,ESE,123,0.0,0.0,80,0.00,,---,0.00,VWS V14.01,2013-05-13 11:13:00,
2013-05-13 04:18:00,53.2,47.6,29.86,ESE,123,0.0,0.0,81,0.00,,---,0.00,VWS V14.01,2013-05-13 11:18:00,
2013-05-13 04:23:00,53.2,47.6,29.86,ESE,123,0.0,0.0,81,0.00,,---,0.00,VWS V14.01,2013-05-13 11:23:00,
2013-05-13 04:28:00,53.2,47.6,29.86,SE,130,0.0,0.0,81,0.00,,---,0.00,VWS V14.01,2013-05-13 11:28:00,
2013-05-13 04:33:00,53.2,47.6,29.86,ESE,109,0.0,0.0,81,0.00,,---,0.00,VWS V14.01,2013-05-13 11:33:00,
2013-05-13 04:38:00,53.2,47.6,29.86,ESE,108,0.0,0.0,81,0.00,,---,0.00,VWS V14.01,2013-05-13 11:38:00,
2013-05-13 04:43:00,53.2,47.6,29.86,ESE,108,0.0,0.0,81,0.00,,---,0.00,VWS V14.01,2013-05-13 11:43:00,
2013-05-13 04:48:00,53.2,47.6,29.86,East,98,0.0,0.0,81,0.00,,---,0.00,VWS V14.01,2013-05-13 11:48:00,
2013-05-13 04:53:00,53.2,47.6,29.86,East,93,0.0,0.0,81,0.00,,---,0.00,VWS V14.01,2013-05-13 11:53:00,
2013-05-13 04:58:00,53.2,47.9,29.86,NE,44,0.0,3.6,82,0.00,,---,0.00,VWS V14.01,2013-05-13 11:58:00,
2013-05-13 05:04:00,53.2,47.9,29.86,NE,52,0.0,3.6,82,0.00,,---,0.00,VWS V14.01,2013-05-13 12:04:00,
2013-05-13 05:09:00,53.2,47.9,29.86,ESE,123,0.0,3.6,82,0.00,,---,0.00,VWS V14.01,2013-05-13 12:09:00,
2013-05-13 05:14:00,53.2,47.9,29.86,East,96,0.0,4.0,82,0.00,,---,0.00,VWS V14.01,2013-05-13 12:14:00,
2013-05-13 05:19:00,53.4,48.1,29.86,NNE,25,0.0,4.0,82,0.00,,---,0.00,VWS V14.01,2013-05-13 12:19:00,
2013-05-13 05:24:00,53.4,48.1,29.86,NNE,31,0.0,0.0,82,0.00,,---,0.00,VWS V14.01,2013-05-13 12:24:00,
2013-05-13 05:29:00,53.4,48.1,29.86,NNE,31,0.0,0.0,82,0.00,,---,0.00,VWS V14.01,2013-05-13 12:29:00,
2013-05-13 05:34:00,53.2,47.9,29.86,NNE,31,0.0,0.0,82,0.00,,---,0.00,VWS V14.01,2013-05-13 12:34:00,
2013-05-13 05:39:00,53.2,47.9,29.86,NNE,31,0.0,0.0,82,0.00,,---,0.00,VWS V14.01,2013-05-13 12:39:00,
2013-05-13 05:44:00,53.1,47.7,29.86,NNE,31,0.0,0.0,82,0.00,,---,0.00,VWS V14.01,2013-05-13 12:44:00,
2013-05-13 05:50:00,52.9,47.5,29.86,ENE,59,2.7,2.7,82,0.00,,---,0.00,VWS V14.01,2013-05-13 12:50:00,
2013-05-13 05:55:00,52.7,47.4,29.86,East,91,0.0,2.7,82,0.00,,---,0.00,VWS V14.01,2013-05-13 12:55:00,
2013-05-13 06:00:00,52.7,47.4,29.86,East,90,0.0,0.0,82,0.00,,---,0.00,VWS V14.01,2013-05-13 13:00:00,
2013-05-13 06:06:00,52.7,47.4,29.86,East,90,0.0,0.0,82,0.00,,---,0.00,VWS V14.01,2013-05-13 13:06:00,
2013-05-13 06:11:00,52.5,47.2,29.86,East,90,0.0,0.0,82,0.00,,---,0.00,VWS V14.01,2013-05-13 13:11:00,
2013-05-13 06:16:00,52.5,47.2,29.86,East,90,0.0,0.0,82,0.00,,---,0.00,VWS V14.01,2013-05-13 13:16:00,
2013-05-13 06:21:00,52.5,47.2,29.86,East,90,0.0,0.0,82,0.00,,---,0.00,VWS V14.01,2013-05-13 13:21:00,
2013-05-13 06:26:00,52.5,47.2,29.86,East,90,0.0,0.0,82,0.00,,---,0.00,VWS V14.01,2013-05-13 13:26:00,
2013-05-13 06:31:00,52.5,47.2,29.86,East,90,0.0,0.0,82,0.00,,---,0.00,VWS V14.01,2013-05-13 13:31:00,
2013-05-13 06:37:00,52.5,47.2,29.86,East,90,0.0,0.0,82,0.00,,---,0.00,VWS V14.01,2013-05-13 13:37:00,
2013-05-13 06:42:00,52.3,47.3,29.86,East,90,0.0,0.0,83,0.00,,---,0.00,VWS V14.01,2013-05-13 13:42:00,
2013-05-13 06:47:00,52.3,47.3,29.86,East,90,0.0,0.0,83,0.00,,---,0.00,VWS V14.01,2013-05-13 13:47:00,
2013-05-13 06:52:00,52.5,47.5,29.86,East,94,0.0,0.0,83,0.00,,---,0.00,VWS V14.01,2013-05-13 13:52:00,
2013-05-13 06:57:00,52.5,47.5,29.86,East,94,0.0,0.0,83,0.00,,---,0.00,VWS V14.01,2013-05-13 13:57:00,
2013-05-13 07:02:00,52.7,47.7,29.86,North,11,0.0,0.0,83,0.00,,---,0.00,VWS V14.01,2013-05-13 14:02:00,
2013-05-13 07:07:00,52.7,47.7,29.86,North,11,0.0,0.0,83,0.00,,---,0.00,VWS V14.01,2013-05-13 14:07:00,
2013-05-13 07:12:00,52.7,47.7,29.86,ESE,114,0.0,0.0,83,0.00,,---,0.00,VWS V14.01,2013-05-13 14:12:00,
2013-05-13 07:18:00,52.9,47.9,29.86,ENE,62,0.0,0.0,83,0.00,,---,0.00,VWS V14.01,2013-05-13 14:18:00,
2013-05-13 07:23:00,52.9,47.5,29.86,ENE,62,0.0,0.0,82,0.00,,---,0.00,VWS V14.01,2013-05-13 14:23:00,
2013-05-13 07:28:00,53.1,47.7,29.86,ENE,62,0.0,0.0,82,0.00,,---,0.00,VWS V14.01,2013-05-13 14:28:00,
2013-05-13 07:33:00,53.1,47.7,29.86,ENE,62,0.0,0.0,82,0.00,,---,0.00,VWS V14.01,2013-05-13 14:33:00,
2013-05-13 07:39:00,53.2,47.9,29.86,ENE,62,0.0,0.0,82,0.00,,---,0.00,VWS V14.01,2013-05-13 14:39:00,
2013-05-13 07:44:00,53.4,48.1,29.86,ENE,62,0.0,0.0,82,0.00,,---,0.00,VWS V14.01,2013-05-13 14:44:00,
2013-05-13 07:49:00,53.6,47.9,29.86,ENE,62,0.0,0.0,81,0.00,,---,0.00,VWS V14.01,2013-05-13 14:49:00,
2013-05-13 07:54:00,53.6,47.6,29.86,North,353,0.0,2.7,80,0.00,,---,0.00,VWS V14.01,2013-05-13 14:54:00,
2013-05-13 07:59:00,53.8,47.4,29.86,NNW,348,0.0,2.7,79,0.00,,---,0.00,VWS V14.01,2013-05-13 14:59:00,
2013-05-13 08:04:00,54.0,47.6,29.86,NNW,348,0.0,0.0,79,0.00,,---,0.00,VWS V14.01,2013-05-13 15:04:00,
2013-05-13 08:09:00,54.0,47.6,29.86,NNW,348,0.0,0.0,79,0.00,,---,0.00,VWS V14.01,2013-05-13 15:09:00,
2013-05-13 08:14:00,54.1,47.8,29.86,NNW,348,0.0,0.0,79,0.00,,---,0.00,VWS V14.01,2013-05-13 15:14:00,
2013-05-13 08:20:00,54.3,48.0,29.86,NNW,348,0.0,0.0,79,0.00,,---,0.00,VWS V14.01,2013-05-13 15:20:00,
2013-05-13 08:25:00,54.5,48.1,29.86,ENE,71,0.0,0.0,79,0.00,,---,0.00,VWS V14.01,2013-05-13 15:25:00,
2013-05-13 08:30:00,54.5,47.8,29.86,ENE,71,0.0,0.0,78,0.00,,---,0.00,VWS V14.01,2013-05-13 15:30:00,
2013-05-13 08:35:00,54.7,48.0,29.86,ENE,71,0.0,0.0,78,0.00,,---,0.00,VWS V14.01,2013-05-13 15:35:00,
2013-05-13 08:40:00,54.7,48.0,29.86,East,86,0.0,0.0,78,0.00,,---,0.00,VWS V14.01,2013-05-13 15:40:00,
2013-05-13 08:45:00,54.7,48.0,29.86,East,91,0.0,0.0,78,0.00,,---,0.00,VWS V14.01,2013-05-13 15:45:00,
2013-05-13 08:50:00,54.7,47.6,29.86,East,93,0.0,0.0,77,0.00,,---,0.00,VWS V14.01,2013-05-13 15:50:00,
2013-05-13 08:55:00,54.7,47.6,29.86,ESE,116,0.0,3.6,77,0.00,,---,0.00,VWS V14.01,2013-05-13 15:55:00,
2013-05-13 09:01:00,54.9,47.8,29.86,ESE,116,0.0,0.0,77,0.00,,---,0.00,VWS V14.01,2013-05-13 16:01:00,
2013-05-13 09:06:00,54.9,47.5,29.86,South,172,0.0,3.1,76,0.00,,---,0.00,VWS V14.01,2013-05-13 16:06:00,
2013-05-13 09:11:00,55.0,47.3,29.86,WNW,302,0.0,0.0,75,0.00,,---,0.00,VWS V14.01,2013-05-13 16:11:00,
2013-05-13 09:16:00,55.2,47.5,29.86,WNW,293,0.0,2.7,75,0.00,,---,0.00,VWS V14.01,2013-05-13 16:16:00,
2013-05-13 09:22:00,55.4,47.3,29.86,WNW,293,0.0,0.0,74,0.00,,---,0.00,VWS V14.01,2013-05-13 16:22:00,
2013-05-13 09:27:00,55.8,47.6,29.86,WNW,293,0.0,2.2,74,0.00,,---,0.00,VWS V14.01,2013-05-13 16:27:00,
2013-05-13 09:32:00,55.8,47.2,29.86,West,261,0.0,0.0,73,0.00,,---,0.00,VWS V14.01,2013-05-13 16:32:00,
2013-05-13 09:37:00,55.9,46.7,29.86,SW,223,0.0,0.0,71,0.00,,---,0.00,VWS V14.01,2013-05-13 16:37:00,
2013-05-13 09:42:00,55.9,47.1,29.86,SW,223,0.0,0.0,72,0.00,,---,0.00,VWS V14.01,2013-05-13 16:42:00,
2013-05-13 09:47:00,55.9,46.7,29.86,SE,143,0.0,5.4,71,0.00,,---,0.00,VWS V14.01,2013-05-13 16:47:00,
2013-05-13 09:52:00,55.9,46.7,29.86,SE,143,0.0,0.0,71,0.00,,---,0.00,VWS V14.01,2013-05-13 16:52:00,
2013-05-13 09:57:00,55.9,47.1,29.86,SE,143,0.0,0.0,72,0.00,,---,0.00,VWS V14.01,2013-05-13 16:57:00,
2013-05-13 10:02:00,55.9,47.1,29.86,SE,142,0.0,0.0,72,0.00,,---,0.00,VWS V14.01,2013-05-13 17:02:00,
2013-05-13 10:07:00,56.1,46.9,29.86,SE,142,0.0,0.0,71,0.00,,---,0.00,VWS V14.01,2013-05-13 17:07:00,
2013-05-13 10:12:00,56.1,46.9,29.86,SE,136,0.0,0.0,71,0.00,,---,0.00,VWS V14.01,2013-05-13 17:12:00,
2013-05-13 10:17:00,56.3,47.0,29.86,NE,54,0.0,3.1,71,0.00,,---,0.00,VWS V14.01,2013-05-13 17:17:00,
2013-05-13 10:22:00,56.3,46.3,29.86,ESE,111,0.0,3.6,69,0.00,,---,0.00,VWS V14.01,2013-05-13 17:22:00,
2013-05-13 10:27:00,56.1,45.3,29.86,East,99,0.0,3.6,67,0.00,,---,0.00,VWS V14.01,2013-05-13 17:27:00,
2013-05-13 10:33:00,56.1,45.3,29.86,SE,142,2.2,3.1,67,0.00,,---,0.00,VWS V14.01,2013-05-13 17:33:00,
2013-05-13 10:38:00,55.9,44.8,29.86,East,95,0.0,3.1,66,0.00,,---,0.00,VWS V14.01,2013-05-13 17:38:00,
2013-05-13 10:43:00,55.9,44.4,29.86,West,274,0.0,3.1,65,0.00,,---,0.00,VWS V14.01,2013-05-13 17:43:00,
2013-05-13 10:48:00,55.9,44.4,29.86,SSW,193,0.0,3.1,65,0.00,,---,0.00,VWS V14.01,2013-05-13 17:48:00,
2013-05-13 10:53:00,55.9,44.8,29.86,West,274,0.0,0.0,66,0.00,,---,0.00,VWS V14.01,2013-05-13 17:53:00,
2013-05-13 10:58:00,56.1,44.9,29.86,SW,227,0.0,2.7,66,0.00,,---,0.00,VWS V14.01,2013-05-13 17:58:00,
2013-05-13 11:03:00,56.3,44.7,29.86,East,79,4.9,4.9,65,0.00,,---,0.00,VWS V14.01,2013-05-13 18:03:00,
2013-05-13 11:08:00,56.3,43.0,29.83,SSW,213,0.0,4.9,61,0.00,,---,0.00,VWS V14.01,2013-05-13 18:08:00,
2013-05-13 11:13:00,56.7,43.4,29.83,WNW,287,0.0,0.0,61,0.00,,---,0.00,VWS V14.01,2013-05-13 18:13:00,
2013-05-13 11:18:00,56.7,43.4,29.83,SW,218,0.0,2.7,61,0.00,,---,0.00,VWS V14.01,2013-05-13 18:18:00,
2013-05-13 11:23:00,56.8,44.0,29.83,South,184,0.0,2.7,62,0.00,,---,0.00,VWS V14.01,2013-05-13 18:23:00,
2013-05-13 11:28:00,57.0,43.7,29.83,SSW,196,0.0,4.0,61,0.00,,---,0.00,VWS V14.01,2013-05-13 18:28:00,
2013-05-13 11:33:00,57.0,43.3,29.83,East,86,0.0,3.6,60,0.00,,---,0.00,VWS V14.01,2013-05-13 18:33:00,
2013-05-13 11:38:00,56.8,42.7,29.83,SSE,147,0.0,4.0,59,0.00,,---,0.00,VWS V14.01,2013-05-13 18:38:00,
2013-05-13 11:43:00,56.8,42.7,29.83,SE,131,3.1,3.1,59,0.00,,---,0.00,VWS V14.01,2013-05-13 18:43:00,
2013-05-13 11:49:00,56.8,42.7,29.83,South,191,0.0,5.8,59,0.00,,---,0.00,VWS V14.01,2013-05-13 18:49:00,
2013-05-13 11:54:00,56.7,42.5,29.83,SE,128,2.2,4.5,59,0.00,,---,0.00,VWS V14.01,2013-05-13 18:54:00,
2013-05-13 11:59:00,56.7,42.5,29.83,ESE,123,0.0,4.5,59,0.00,,---,0.00,VWS V14.01,2013-05-13 18:59:00,
2013-05-13 12:04:00,56.7,42.5,29.83,East,86,0.0,3.1,59,0.00,,---,0.00,VWS V14.01,2013-05-13 19:04:00,
2013-05-13 12:09:00,56.7,43.0,29.83,ENE,67,5.8,5.8,60,0.00,,---,0.00,VWS V14.01,2013-05-13 19:09:00,
2013-05-13 12:14:00,56.7,43.8,29.83,East,84,0.0,0.0,62,0.00,,---,0.00,VWS V14.01,2013-05-13 19:14:00,
2013-05-13 12:19:00,56.8,44.0,29.83,East,84,0.0,0.0,62,0.00,,---,0.00,VWS V14.01,2013-05-13 19:19:00,
2013-05-13 12:24:00,56.8,44.0,29.83,East,89,0.0,0.0,62,0.00,,---,0.00,VWS V14.01,2013-05-13 19:24:00,
2013-05-13 12:29:00,57.0,44.6,29.83,SSE,155,4.0,5.4,63,0.00,,---,0.00,VWS V14.01,2013-05-13 19:29:00,
2013-05-13 12:34:00,57.0,44.1,29.83,SSW,204,0.0,0.0,62,0.00,,---,0.00,VWS V14.01,2013-05-13 19:34:00,
2013-05-13 12:39:00,56.8,44.0,29.83,SSW,202,0.0,0.0,62,0.00,,---,0.00,VWS V14.01,2013-05-13 19:39:00,
2013-05-13 12:44:00,56.8,44.0,29.83,WNW,288,0.0,0.0,62,0.00,,---,0.00,VWS V14.01,2013-05-13 19:44:00,
2013-05-13 12:49:00,56.8,44.0,29.83,East,98,0.0,3.1,62,0.00,,---,0.00,VWS V14.01,2013-05-13 19:49:00,
2013-05-13 12:55:00,57.2,44.3,29.83,South,171,0.0,0.0,62,0.00,,---,0.00,VWS V14.01,2013-05-13 19:55:00,
2013-05-13 13:00:00,57.6,44.7,29.83,West,277,0.0,0.0,62,0.00,,---,0.00,VWS V14.01,2013-05-13 20:00:00,
2013-05-13 13:05:00,57.9,45.0,29.80,WNW,295,0.0,0.0,62,0.00,,---,0.00,VWS V14.01,2013-05-13 20:05:00,
2013-05-13 13:10:00,58.3,45.3,29.80,WNW,294,0.0,0.0,62,0.00,,---,0.00,VWS V14.01,2013-05-13 20:10:00,
2013-05-13 13:15:00,58.5,45.5,29.80,WNW,290,0.0,0.0,62,0.00,,---,0.00,VWS V14.01,2013-05-13 20:15:00,
2013-05-13 13:20:00,58.3,44.9,29.83,WNW,290,0.0,0.0,61,0.00,,---,0.00,VWS V14.01,2013-05-13 20:20:00,
2013-05-13 13:25:00,58.3,45.8,29.83,NE,41,0.0,0.0,63,0.00,,---,0.00,VWS V14.01,2013-05-13 20:25:00,
2013-05-13 13:31:00,58.5,47.6,29.83,East,92,0.0,0.0,67,0.00,,---,0.00,VWS V14.01,2013-05-13 20:31:00,
2013-05-13 13:36:00,58.6,47.7,29.80,NNE,21,0.0,0.0,67,0.00,,---,0.00,VWS V14.01,2013-05-13 20:36:00,
2013-05-13 13:41:00,58.5,48.0,29.80,NNE,21,0.0,0.0,68,0.00,,---,0.00,VWS V14.01,2013-05-13 20:41:00,
2013-05-13 13:47:00,57.9,47.8,29.80,NE,50,0.0,0.0,69,0.00,,---,0.00,VWS V14.01,2013-05-13 20:47:00,
2013-05-13 13:52:00,57.9,48.2,29.80,ENE,77,0.0,0.0,70,0.00,,---,0.00,VWS V14.01,2013-05-13 20:52:00,
2013-05-13 13:57:00,57.7,47.3,29.80,ESE,112,0.0,0.0,68,0.00,,---,0.00,VWS V14.01,2013-05-13 20:57:00,
2013-05-13 14:02:00,57.9,47.4,29.80,SE,136,0.0,0.0,68,0.00,,---,0.00,VWS V14.01,2013-05-13 21:02:00,
2013-05-13 14:07:00,58.3,47.4,29.80,NNW,336,0.0,2.2,67,0.00,,---,0.00,VWS V14.01,2013-05-13 21:07:00,
2013-05-13 14:13:00,58.3,47.0,29.80,SE,143,0.0,0.0,66,0.00,,---,0.00,VWS V14.01,2013-05-13 21:13:00,
2013-05-13 14:18:00,58.3,46.6,29.80,SE,143,0.0,0.0,65,0.00,,---,0.00,VWS V14.01,2013-05-13 21:18:00,
2013-05-13 14:23:00,58.6,48.1,29.77,SE,143,0.0,0.0,68,0.00,,---,0.00,VWS V14.01,2013-05-13 21:23:00,
2013-05-13 14:28:00,59.5,46.1,29.77,North,350,0.0,2.7,61,0.00,,---,0.00,VWS V14.01,2013-05-13 21:28:00,
2013-05-13 14:33:00,59.9,45.5,29.77,South,187,0.0,0.0,59,0.00,,---,0.00,VWS V14.01,2013-05-13 21:33:00,
2013-05-13 14:38:00,60.1,45.3,29.77,WSW,241,0.0,3.1,58,0.00,,---,0.00,VWS V14.01,2013-05-13 21:38:00,
2013-05-13 14:43:00,60.1,44.8,29.77,WSW,247,0.0,0.0,57,0.00,,---,0.00,VWS V14.01,2013-05-13 21:43:00,
2013-05-13 14:48:00,59.7,43.5,29.77,NW,312,0.0,6.3,55,0.00,,---,0.00,VWS V14.01,2013-05-13 21:48:00,
2013-05-13 14:53:00,59.2,43.0,29.77,ESE,119,0.0,4.9,55,0.00,,---,0.00,VWS V14.01,2013-05-13 21:53:00,
2013-05-13 14:58:00,59.0,44.3,29.77,NW,311,0.0,4.9,58,0.00,,---,0.00,VWS V14.01,2013-05-13 21:58:00,
2013-05-13 15:03:00,59.0,43.8,29.77,SSE,150,0.0,2.2,57,0.00,,---,0.00,VWS V14.01,2013-05-13 22:03:00,
2013-05-13 15:08:00,58.6,43.9,29.77,NE,49,0.0,4.0,58,0.00,,---,0.00,VWS V14.01,2013-05-13 22:08:00,
2013-05-13 15:14:00,58.1,43.9,29.77,ENE,69,0.0,4.0,59,0.00,,---,0.00,VWS V14.01,2013-05-13 22:14:00,
2013-05-13 15:19:00,57.6,44.2,29.80,SW,217,0.0,4.0,61,0.00,,---,0.00,VWS V14.01,2013-05-13 22:19:00,
2013-05-13 15:24:00,56.8,44.8,29.80,SSW,204,0.0,2.2,64,0.00,,---,0.00,VWS V14.01,2013-05-13 22:24:00,
2013-05-13 15:29:00,56.1,45.3,29.80,SSE,160,0.0,3.6,67,0.00,,---,0.00,VWS V14.01,2013-05-13 22:29:00,
2013-05-13 15:35:00,55.2,45.2,29.83,SW,232,0.0,4.9,69,0.00,,---,0.00,VWS V14.01,2013-05-13 22:35:00,
2013-05-13 15:40:00,54.3,45.5,29.83,SE,133,5.4,6.3,72,0.00,,---,0.00,VWS V14.01,2013-05-13 22:40:00,
2013-05-13 15:45:00,53.2,45.5,29.83,SE,125,0.0,6.3,75,0.04,,---,0.04,VWS V14.01,2013-05-13 22:45:00,
2013-05-13 15:50:00,53.1,46.0,29.83,ESE,102,0.0,0.0,77,0.04,,---,0.04,VWS V14.01,2013-05-13 22:50:00,
2013-05-13 15:55:00,53.4,47.1,29.83,SE,133,0.0,4.0,79,0.04,,---,0.04,VWS V14.01,2013-05-13 22:55:00,
2013-05-13 16:00:00,53.4,47.7,29.83,East,96,0.0,0.0,81,0.04,,---,0.04,VWS V14.01,2013-05-13 23:00:00,
2013-05-13 16:05:00,53.6,48.2,29.83,East,97,0.0,0.0,82,0.04,,---,0.04,VWS V14.01,2013-05-13 23:05:00,
2013-05-13 16:10:00,53.8,48.8,29.83,SSE,153,3.6,3.6,83,0.04,,---,0.04,VWS V14.01,2013-05-13 23:10:00,
2013-05-13 16:15:00,53.8,48.4,29.83,WNW,291,0.0,5.8,82,0.04,,---,0.04,VWS V14.01,2013-05-13 23:15:00,
2013-05-13 16:21:00,53.8,48.1,29.80,South,173,0.0,5.8,81,0.04,,---,0.04,VWS V14.01,2013-05-13 23:21:00,
2013-05-13 16:26:00,53.4,47.4,29.80,SE,141,5.4,5.8,80,0.04,,---,0.04,VWS V14.01,2013-05-13 23:26:00,
2013-05-13 16:31:00,53.2,47.2,29.80,East,83,0.0,3.1,80,0.04,,---,0.04,VWS V14.01,2013-05-13 23:31:00,
2013-05-13 16:36:00,52.9,47.2,29.80,East,89,0.0,3.6,81,0.04,,---,0.04,VWS V14.01,2013-05-13 23:36:00,
2013-05-13 16:41:00,52.5,46.9,29.80,East,88,0.0,4.0,81,0.04,,---,0.04,VWS V14.01,2013-05-13 23:41:00,
2013-05-13 16:46:00,52.2,46.8,29.80,SE,138,0.0,5.8,82,0.04,,---,0.04,VWS V14.01,2013-05-13 23:46:00,
2013-05-13 16:51:00,52.0,47.0,29.83,SE,128,0.0,4.9,83,0.00,,---,0.04,VWS V14.01,2013-05-13 23:51:00,
2013-05-13 16:56:00,51.6,46.6,29.83,East,79,0.0,4.9,83,0.00,,---,0.04,VWS V14.01,2013-05-13 23:56:00,
2013-05-13 17:01:00,51.6,47.0,29.83,East,79,0.0,0.0,84,0.00,,---,0.04,VWS V14.01,2013-05-14 00:01:00,
2013-05-13 17:06:00,51.6,47.0,29.80,NNE,32,0.0,0.0,84,0.00,,---,0.04,VWS V14.01,2013-05-14 00:06:00,
2013-05-13 17:11:00,51.6,47.3,29.80,North,357,0.0,0.0,85,0.00,,---,0.04,VWS V14.01,2013-05-14 00:11:00,
2013-05-13 17:16:00,51.8,47.4,29.80,SSE,158,0.0,2.2,85,0.00,,---,0.04,VWS V14.01,2013-05-14 00:16:00,
2013-05-13 17:21:00,51.8,47.4,29.83,ESE,107,0.0,3.6,85,0.00,,---,0.04,VWS V14.01,2013-05-14 00:21:00,
2013-05-13 17:26:00,51.6,47.3,29.83,SE,124,4.9,4.9,85,0.00,,---,0.04,VWS V14.01,2013-05-14 00:26:00,
2013-05-13 17:32:00,51.1,46.7,29.83,East,101,0.0,2.2,85,0.00,,---,0.04,VWS V14.01,2013-05-14 00:32:00,
2013-05-13 17:37:00,50.7,46.4,29.83,East,98,0.0,2.2,85,0.00,,---,0.04,VWS V14.01,2013-05-14 00:37:00,
2013-05-13 17:42:00,50.4,46.0,29.83,ESE,117,0.0,3.6,85,0.00,,---,0.04,VWS V14.01,2013-05-14 00:42:00,
2013-05-13 17:47:00,50.2,45.8,29.83,SE,130,0.0,3.6,85,0.00,,---,0.04,VWS V14.01,2013-05-14 00:47:00,
2013-05-13 17:52:00,50.2,46.2,29.83,SSE,153,0.0,4.9,86,0.00,,---,0.04,VWS V14.01,2013-05-14 00:52:00,
2013-05-13 17:58:00,50.0,45.7,29.83,SSE,151,0.0,4.9,85,0.00,,---,0.04,VWS V14.01,2013-05-14 00:58:00,
2013-05-13 18:03:00,49.8,45.8,29.83,SSE,151,0.0,0.0,86,0.00,,---,0.04,VWS V14.01,2013-05-14 01:03:00,
2013-05-13 18:08:00,49.6,45.6,29.83,SE,125,0.0,0.0,86,0.00,,---,0.04,VWS V14.01,2013-05-14 01:08:00,
2013-05-13 18:13:00,49.5,45.5,29.83,SE,125,0.0,0.0,86,0.00,,---,0.04,VWS V14.01,2013-05-14 01:13:00,
2013-05-13 18:18:00,49.5,45.8,29.83,SE,125,0.0,0.0,87,0.00,,---,0.04,VWS V14.01,2013-05-14 01:18:00,
2013-05-13 18:23:00,49.5,45.8,29.86,SE,133,0.0,3.6,87,0.00,,---,0.04,VWS V14.01,2013-05-14 01:23:00,
2013-05-13 18:28:00,49.3,45.6,29.86,SSW,203,0.0,3.6,87,0.00,,---,0.04,VWS V14.01,2013-05-14 01:28:00,
2013-05-13 18:33:00,49.1,45.4,29.86,SSW,203,0.0,0.0,87,0.04,,---,0.08,VWS V14.01,2013-05-14 01:33:00,
2013-05-13 18:38:00,48.7,45.0,29.86,SW,215,0.0,0.0,87,0.04,,---,0.08,VWS V14.01,2013-05-14 01:38:00,
2013-05-13 18:45:00,48.4,44.7,29.86,ESE,118,0.0,4.0,87,0.04,,---,0.08,VWS V14.01,2013-05-14 01:45:00,
2013-05-13 18:50:00,48.0,44.3,29.89,WNW,291,0.0,0.0,87,0.04,,---,0.08,VWS V14.01,2013-05-14 01:50:00,
2013-05-13 18:55:00,47.7,44.0,29.89,SE,142,4.0,4.0,87,0.04,,---,0.08,VWS V14.01,2013-05-14 01:55:00,
2013-05-13 19:00:00,47.1,43.2,29.89,SE,127,2.7,2.7,86,0.04,,---,0.08,VWS V14.01,2013-05-14 02:00:00,
2013-05-13 19:05:00,46.6,42.6,29.89,WSW,250,0.0,2.7,86,0.08,,---,0.12,VWS V14.01,2013-05-14 02:05:00,
2013-05-13 19:10:00,46.2,42.3,29.89,WSW,249,0.0,0.0,86,0.08,,---,0.12,VWS V14.01,2013-05-14 02:10:00,
2013-05-13 19:15:00,46.0,42.4,29.89,NE,36,0.0,6.3,87,0.08,,---,0.12,VWS V14.01,2013-05-14 02:15:00,
2013-05-13 19:20:00,45.7,42.0,29.89,South,173,0.0,0.0,87,0.08,,---,0.12,VWS V14.01,2013-05-14 02:20:00,
2013-05-13 19:25:00,45.3,41.7,29.89,SSE,157,4.0,7.2,87,0.08,,---,0.12,VWS V14.01,2013-05-14 02:25:00,
2013-05-13 19:31:00,45.1,41.5,29.89,SE,145,0.0,0.0,87,0.04,,---,0.12,VWS V14.01,2013-05-14 02:31:00,
2013-05-13 19:36:00,44.8,41.2,29.92,SE,145,0.0,0.0,87,0.04,,---,0.12,VWS V14.01,2013-05-14 02:36:00,
2013-05-13 19:41:00,44.6,41.0,29.92,SSW,201,0.0,3.1,87,0.04,,---,0.12,VWS V14.01,2013-05-14 02:41:00,
2013-05-13 19:46:00,44.2,40.9,29.92,SSE,152,4.0,6.3,88,0.04,,---,0.12,VWS V14.01,2013-05-14 02:46:00,
2013-05-13 19:51:00,44.2,40.9,29.89,North,2,0.0,4.9,88,0.04,,---,0.12,VWS V14.01,2013-05-14 02:51:00,
2013-05-13 19:56:00,43.9,40.6,29.89,SSW,202,0.0,4.9,88,0.04,,---,0.12,VWS V14.01,2013-05-14 02:56:00,
2013-05-13 20:01:00,43.7,40.7,29.89,NNE,22,0.0,2.2,89,0.04,,---,0.12,VWS V14.01,2013-05-14 03:01:00,
2013-05-13 20:06:00,43.3,40.3,29.89,North,353,0.0,2.2,89,0.04,,---,0.12,VWS V14.01,2013-05-14 03:06:00,
2013-05-13 20:11:00,43.2,40.1,29.89,NNE,32,0.0,0.0,89,0.00,,---,0.12,VWS V14.01,2013-05-14 03:11:00,
2013-05-13 20:16:00,43.0,40.0,29.89,South,189,7.6,7.6,89,0.00,,---,0.12,VWS V14.01,2013-05-14 03:16:00,
2013-05-13 20:22:00,42.8,39.8,29.89,ENE,65,0.0,0.0,89,0.00,,---,0.12,VWS V14.01,2013-05-14 03:22:00,
2013-05-13 20:27:00,42.4,39.4,29.89,North,7,0.0,4.0,89,0.00,,---,0.12,VWS V14.01,2013-05-14 03:27:00,
2013-05-13 20:32:00,42.3,39.3,29.89,SE,130,0.0,4.0,89,0.00,,---,0.12,VWS V14.01,2013-05-14 03:32:00,
2013-05-13 20:37:00,42.1,39.4,29.89,North,5,0.0,4.0,90,0.00,,---,0.12,VWS V14.01,2013-05-14 03:37:00,
2013-05-13 20:42:00,42.1,39.4,29.89,ENE,70,0.0,0.0,90,0.00,,---,0.12,VWS V14.01,2013-05-14 03:42:00,
2013-05-13 20:47:00,41.7,39.0,29.89,East,83,0.0,2.7,90,0.00,,---,0.12,VWS V14.01,2013-05-14 03:47:00,
2013-05-13 20:52:00,41.5,38.8,29.92,South,182,3.1,5.4,90,0.00,,---,0.12,VWS V14.01,2013-05-14 03:52:00,
2013-05-13 20:57:00,41.5,38.8,29.92,East,100,2.7,5.4,90,0.00,,---,0.12,VWS V14.01,2013-05-14 03:57:00,
2013-05-13 21:01:00,41.2,38.5,29.92,East,98,0.0,0.0,90,0.00,,---,0.12,VWS V14.01,2013-05-14 04:01:00,
2013-05-13 21:03:00,41.2,38.5,29.92,East,79,3.1,3.1,90,0.00,,---,0.12,VWS V14.01,2013-05-14 04:03:00,
2013-05-13 21:08:00,41.0,38.3,29.92,East,99,2.7,4.9,90,0.00,,---,0.12,VWS V14.01,2013-05-14 04:08:00,
2013-05-13 21:13:00,40.8,38.4,29.92,East,97,3.1,5.4,91,0.00,,---,0.12,VWS V14.01,2013-05-14 04:13:00,
2013-05-13 21:18:00,40.6,38.2,29.92,East,91,0.0,5.4,91,0.00,,---,0.12,VWS V14.01,2013-05-14 04:18:00,
2013-05-13 21:23:00,40.5,38.0,29.92,ENE,73,0.0,4.9,91,0.00,,---,0.12,VWS V14.01,2013-05-14 04:23:00,
2013-05-13 21:28:00,40.5,38.0,29.92,ESE,112,3.1,8.1,91,0.00,,---,0.12,VWS V14.01,2013-05-14 04:28:00,
2013-05-13 21:33:00,40.5,38.0,29.92,ENE,76,0.0,3.6,91,0.00,,---,0.12,VWS V14.01,2013-05-14 04:33:00,
2013-05-13 21:38:00,40.5,38.0,29.92,North,10,0.0,3.6,91,0.00,,---,0.12,VWS V14.01,2013-05-14 04:38:00,
2013-05-13 21:43:00,40.6,37.9,29.92,ESE,119,2.2,5.8,90,0.00,,---,0.12,VWS V14.01,2013-05-14 04:43:00,
2013-05-13 21:48:00,40.8,38.1,29.92,East,96,3.6,5.8,90,0.00,,---,0.12,VWS V14.01,2013-05-14 04:48:00,
2013-05-13 21:53:00,41.0,38.0,29.95,ESE,106,0.0,4.0,89,0.00,,---,0.12,VWS V14.01,2013-05-14 04:53:00,
2013-05-13 21:58:00,41.0,38.0,29.95,SE,130,6.3,6.3,89,0.00,,---,0.12,VWS V14.01,2013-05-14 04:58:00,
2013-05-13 22:03:00,41.2,37.9,29.95,WNW,284,0.0,6.3,88,0.00,,---,0.12,VWS V14.01,2013-05-14 05:03:00,
2013-05-13 22:09:00,41.4,38.1,29.95,ESE,116,3.6,6.3,88,0.00,,---,0.12,VWS V14.01,2013-05-14 05:09:00,
2013-05-13 22:14:00,41.4,38.1,29.95,SSW,198,6.3,6.3,88,0.00,,---,0.12,VWS V14.01,2013-05-14 05:14:00,
2013-05-13 22:19:00,41.2,37.9,29.95,NW,325,0.0,8.1,88,0.00,,---,0.12,VWS V14.01,2013-05-14 05:19:00,
2013-05-13 22:24:00,41.4,38.1,29.95,North,0,0.0,2.7,88,0.00,,---,0.12,VWS V14.01,2013-05-14 05:24:00,
2013-05-13 22:29:00,41.4,38.1,29.95,NW,311,0.0,4.0,88,0.00,,---,0.12,VWS V14.01,2013-05-14 05:29:00,
2013-05-13 22:34:00,41.4,38.1,29.95,NNW,337,0.0,0.0,88,0.00,,---,0.12,VWS V14.01,2013-05-14 05:34:00,
2013-05-13 22:39:00,41.4,38.1,29.95,NW,308,0.0,2.2,88,0.00,,---,0.12,VWS V14.01,2013-05-14 05:39:00,
2013-05-13 22:44:00,41.4,38.1,29.95,NW,310,0.0,0.0,88,0.00,,---,0.12,VWS V14.01,2013-05-14 05:44:00,
2013-05-13 22:49:00,41.4,38.1,29.95,NW,310,0.0,0.0,88,0.00,,---,0.12,VWS V14.01,2013-05-14 05:49:00,
2013-05-13 22:54:00,41.5,38.5,29.95,NW,310,0.0,0.0,89,0.00,,---,0.12,VWS V14.01,2013-05-14 05:54:00,
2013-05-13 22:59:00,41.5,38.5,29.95,NW,310,0.0,0.0,89,0.00,,---,0.12,VWS V14.01,2013-05-14 05:59:00,
2013-05-13 23:04:00,41.5,38.5,29.95,NW,310,0.0,0.0,89,0.00,,---,0.12,VWS V14.01,2013-05-14 06:04:00,
2013-05-13 23:09:00,41.5,38.5,29.95,NW,310,0.0,0.0,89,0.00,,---,0.12,VWS V14.01,2013-05-14 06:09:00,
2013-05-13 23:14:00,41.4,38.4,29.95,NW,310,0.0,0.0,89,0.00,,---,0.12,VWS V14.01,2013-05-14 06:14:00,
2013-05-13 23:20:00,41.4,38.7,29.95,NW,310,0.0,0.0,90,0.00,,---,0.12,VWS V14.01,2013-05-14 06:20:00,
2013-05-13 23:25:00,41.4,38.7,29.95,NNE,18,0.0,0.0,90,0.00,,---,0.12,VWS V14.01,2013-05-14 06:25:00,
2013-05-13 23:30:00,41.4,38.7,29.95,NNE,18,0.0,0.0,90,0.00,,---,0.12,VWS V14.01,2013-05-14 06:30:00,
2013-05-13 23:35:00,41.4,38.7,29.95,ESE,120,0.0,4.9,90,0.00,,---,0.12,VWS V14.01,2013-05-14 06:35:00,
2013-05-13 23:40:00,41.4,38.7,29.95,ESE,120,0.0,0.0,90,0.00,,---,0.12,VWS V14.01,2013-05-14 06:40:00,
2013-05-13 23:45:00,41.2,38.5,29.95,NNE,23,0.0,5.4,90,0.00,,---,0.12,VWS V14.01,2013-05-14 06:45:00,
2013-05-13 23:50:00,41.2,38.5,29.98,ESE,114,0.0,0.0,90,0.00,,---,0.12,VWS V14.01,2013-05-14 06:50:00,
2013-05-13 23:55:00,41.0,38.3,29.98,NE,43,0.0,0.0,90,0.00,,---,0.12,VWS V14.01,2013-05-14 06:55:00,